Kalispell, MT

7:24 PM MDT on April 24, 2018 (GMT -0600)
Glacier Park International

Weather History for KGPI - October, 2011

Change the Weather History Date:

Saturday, October 15, 2011

  Actual Average Record
Temperature  
Mean Temperature 40 °F 42 °F  
Max Temperature 51 °F 55 °F 79 °F (1991)
Min Temperature 28 °F 29 °F 17 °F (1970)
Degree Days  
Heating Degree Days 25 23  
Month to date heating degree days 252 300  
Since 1 July heating degree days 627 800  
Cooling Degree Days 0 0  
Month to date cooling degree days 0 0  
Year to date cooling degree days 97 147  
Moisture  
Dew Point 36 °F    
Average Humidity 78    
Maximum Humidity 100    
Minimum Humidity 56    
Precipitation  
Precipitation 0.04 in 0.03 in 0.34 in (2003)
Month to date precipitation 1.48 0.44  
Year to date precipitation 14.63 13.43  
Snow  
Snow 0.00 in - - ()
Month to date snowfall 0.0  
Year to date snowfall 27.0  
Since 1 July snowfall 0.0  
Snow Depth 0.00 in    
Sea Level Pressure  
Sea Level Pressure 30.07 in    
Wind  
Wind Speed 1 mph (South)    
Max Wind Speed 10 mph    
Max Gust Speed 13 mph    
Visibility 6 miles    
Events Fog , Rain    
T = Trace of Precipitation, MM = Missing Value Source: NWS Daily Summary

Daily Weather History Graph

Daily Weather History Graph

Search for Another Location

Airport or City:

Astronomy

Oct. 15, 2011 Rise Set
Actual Time 7:56 AM MDT 6:48 PM MDT
Civil Twilight 7:24 AM MDT 7:19 PM MDT
Nautical Twilight 6:48 AM MDT 7:55 PM MDT
Astronomical Twilight 6:12 AM MDT 8:32 PM MDT
Moon 8:28 PM MDT (10/15) 11:44 AM MDT (10/15)
Length of Visible Light 11h 54m
Length of Day
10h 51m
Waning Gibbous, 88% of the Moon is Illuminated
Oct 15
Waning Gibbous
Oct 19
Last Quarter
Oct 26
New
Nov 2
First Quarter
Nov 10
Full

Hourly Weather History & Observations

Time (MDT) Temp. Windchill Dew Point Humidity Pressure Visibility Wind Dir Wind Speed Gust Speed Precip Events Conditions
12:55 AM 39.0 °F - 39.0 °F 100% 30.03 in 8.0 mi Calm Calm - 0.02 in Rain Light Rain
1:55 AM 39.9 °F - 37.9 °F 93% 30.01 in 9.0 mi Calm Calm - 0.01 in Rain Light Rain
2:55 AM 39.0 °F - 39.0 °F 100% 30.01 in 7.0 mi Calm Calm - 0.01 in Rain Light Rain
3:55 AM 39.9 °F - 37.9 °F 93% 30.01 in 9.0 mi Calm Calm - 0.02 in Rain Light Rain
4:55 AM 39.0 °F - 37.9 °F 96% 30.03 in 6.0 mi Calm Calm - 0.00 in   Overcast
5:55 AM 39.0 °F - 37.9 °F 96% 30.04 in 6.0 mi Calm Calm - N/A   Overcast
6:55 AM 37.4 °F - 37.4 °F 100% 30.00 in 7.0 mi Calm Calm - N/A   Overcast
7:05 AM 37.4 °F - 37.4 °F 100% 30.00 in 2.5 mi Calm Calm - N/A   Mostly Cloudy
7:11 AM 35.6 °F - 35.6 °F 100% 30.00 in 1.2 mi Calm Calm - N/A   Mostly Cloudy
7:16 AM 35.6 °F - 35.6 °F 100% 30.01 in 0.5 mi Calm Calm - N/A Fog Fog
7:27 AM 35.6 °F - 35.6 °F 100% 30.01 in 0.2 mi Calm Calm - N/A Fog Fog
7:39 AM 35.6 °F - 35.6 °F 100% 30.02 in 0.2 mi Calm Calm - N/A Fog Fog
7:46 AM 35.6 °F - 35.6 °F 100% 30.02 in 0.5 mi Calm Calm - N/A Fog Fog
7:55 AM 36.0 °F - 36.0 °F 100% 30.07 in 0.2 mi Calm Calm - N/A Fog Fog
8:17 AM 35.6 °F - 35.6 °F 100% 30.02 in 0.2 mi Calm Calm - N/A Fog Fog
8:55 AM 37.0 °F - 37.0 °F 100% 30.09 in 0.5 mi Calm Calm - N/A Fog Fog
8:56 AM 37.4 °F - 35.6 °F 93% 30.03 in 0.2 mi Calm Calm - N/A Fog Fog
9:15 AM 37.4 °F - 37.4 °F 100% 30.04 in 0.5 mi Calm Calm - N/A Fog Fog
10:32 AM 39.2 °F - 37.4 °F 93% 30.07 in 10.0 mi Calm Calm - N/A   Overcast
10:44 AM 39.2 °F - 39.2 °F 100% 30.07 in 10.0 mi Calm Calm - N/A   Overcast
10:55 AM 39.9 °F - 39.0 °F 97% 30.12 in 10.0 mi Calm Calm - N/A   Overcast
11:55 AM 44.1 °F - 39.0 °F 82% 30.13 in 10.0 mi Calm Calm - N/A   Overcast
12:55 PM 45.0 °F - 37.0 °F 74% 30.13 in 10.0 mi Calm Calm - N/A   Overcast
1:55 PM 46.0 °F 43.9 °F 36.0 °F 68% 30.13 in 10.0 mi Variable 4.6 mph - N/A   Mostly Cloudy
2:55 PM 48.9 °F - 35.1 °F 59% 30.12 in 10.0 mi Calm Calm - N/A   Clear
3:55 PM 50.0 °F - 35.6 °F 58% 30.08 in 10.0 mi SSE 3.5 mph - N/A   Partly Cloudy
4:55 PM 50.0 °F - 35.1 °F 57% 30.11 in 10.0 mi SSE 8.1 mph - N/A   Clear
5:55 PM 48.0 °F - 36.0 °F 63% 30.12 in 10.0 mi South 8.1 mph - N/A   Clear
6:55 PM 39.9 °F 35.8 °F 35.1 °F 83% 30.14 in 10.0 mi SSW 5.8 mph - N/A   Clear
7:55 PM 39.9 °F - 35.1 °F 83% 30.15 in 10.0 mi Calm Calm - N/A   Clear
8:55 PM 34.0 °F - 32.0 °F 92% 30.17 in 10.0 mi Calm Calm - N/A   Clear
9:55 PM 32.0 °F - 30.9 °F 96% 30.18 in 10.0 mi Calm Calm - N/A   Clear
10:55 PM 30.0 °F - 28.9 °F 96% 30.18 in 9.0 mi Calm Calm - N/A   Clear
11:55 PM 28.9 °F - 28.0 °F 96% 30.17 in 7.0 mi Calm Calm - N/A   Clear